Location: Castle Hill Houses
(40.8186°N, 73.8497°W)
Time: 02:11:37
(UTC+00:00)

Cosmos 1420 Rocket - Pass Details

Date: 26 January 2020
Orbit: 754 x 782 km, 74.0° (Epoch: 22 February)

Event Time Altitude Azimuth Distance (km) Brightness Sun altitude
Rises 11:03:05 0° 341° (NNW) 3,263 6.9 -13.0°
Reaches altitude 10° 11:05:28 10° 343° (NNW) 2,335 6.2 -12.6°
Maximum altitude 11:10:48 79° 71° (ENE) 798 4.2 -11.6°
Drops below altitude 10° 11:16:06 10° 158° (SSE) 2,328 7.1 -10.6°
Sets 11:18:28 0° 159° (SSE) 3,253 7.8 -10.2°
